Location: Cadeilhan
(42.8161°N, 0.3161°E)
Time: 16:33:29
(UTC+00:00)

USA 267 - Pass Details

Date: 18 February 2020
Orbit: 1101 x 1107 km, 123.0° (Epoch: 26 March)

Event Time Altitude Azimuth Distance (km) Brightness Sun altitude
Rises 04:47:34 0° 167° (SSE) 3,902 6.2 -23.6°
Reaches altitude 10° 04:50:29 10° 179° (S) 2,948 5.5 -23.0°
Enters shadow 04:54:39 25° 218° (SW) 2,036 4.3 -22.3°
